| time (UTC) | temp C | wind direction | speed KPH | gust KPH | rain 1hr cm | rain 24hr cm | rain mn cm | humidity % | barometer mb |
| 20260510234946 | 26 | 116 | 0.0 | 3.2 | 0.00 | 0.00 | 0.00 | 41 | 1007.5 |
| 20260510234306 | 27 | 244 | 1.6 | 4.8 | 0.00 | 0.00 | 0.00 | 36 | 1007.1 |
| 20260510233626 | 27 | 216 | 1.6 | 4.8 | 0.00 | 0.00 | 0.00 | 35 | 1007.1 |
| 20260510232946 | 27 | 199 | 1.6 | 3.2 | 0.00 | 0.00 | 0.00 | 35 | 1007.1 |
| 20260510232306 | 27 | 239 | 1.6 | 6.4 | 0.00 | 0.00 | 0.00 | 33 | 1007.1 |
| 20260510231626 | 27 | 176 | 3.2 | 11.3 | 0.00 | 0.00 | 0.00 | 33 | 1007.1 |
| 20260510231156 | 27 | 203 | 6.4 | 11.3 | 0.00 | 0.00 | 0.00 | 33 | 1007.1 |
| 20260510230307 | 27 | 200 | 4.8 | 12.9 | 0.00 | 0.00 | 0.00 | 32 | 1006.8 |
| 20260510225837 | 27 | 217 | 6.4 | 12.9 | 0.00 | 0.00 | 0.00 | 32 | 1006.8 |
| 20260510224946 | 27 | 199 | 8.0 | 12.9 | 0.00 | 0.00 | 0.00 | 34 | 1006.8 |
| 20260510224518 | 28 | 193 | 6.4 | 9.7 | 0.00 | 0.00 | 0.00 | 33 | 1006.8 |
| 20260510223627 | 28 | 244 | 3.2 | 9.7 | 0.00 | 0.00 | 0.00 | 32 | 1006.8 |
| 20260510222946 | 28 | 210 | 6.4 | 14.5 | 0.00 | 0.00 | 0.00 | 32 | 1006.8 |
| 20260510222520 | 28 | 224 | 4.8 | 11.3 | 0.00 | 0.00 | 0.00 | 33 | 1006.8 |
| 20260510221627 | 28 | 185 | 4.8 | 12.9 | 0.00 | 0.00 | 0.00 | 33 | 1006.8 |
| 20260510220947 | 28 | 211 | 6.4 | 14.5 | 0.00 | 0.00 | 0.00 | 34 | 1006.8 |
| 20260510220517 | 28 | 182 | 3.2 | 16.1 | 0.00 | 0.00 | 0.00 | 32 | 1006.8 |
| 20260510215626 | 28 | 204 | 8.0 | 16.1 | 0.00 | 0.00 | 0.00 | 33 | 1006.8 |
| 20260510214946 | 28 | 239 | 6.4 | 16.1 | 0.00 | 0.00 | 0.00 | 32 | 1006.8 |
| 20260510214306 | 28 | 229 | 6.4 | 16.1 | 0.00 | 0.00 | 0.00 | 31 | 1006.8 |
| 20260510213626 | 28 | 190 | 4.8 | 16.1 | 0.00 | 0.00 | 0.00 | 32 | 1006.4 |
| 20260510212946 | 28 | 220 | 4.8 | 9.7 | 0.00 | 0.00 | 0.00 | 32 | 1006.4 |
| 20260510212306 | 29 | 195 | 4.8 | 9.7 | 0.00 | 0.00 | 0.00 | 31 | 1006.4 |
| 20260510211836 | 28 | 176 | 3.2 | 11.3 | 0.00 | 0.00 | 0.00 | 33 | 1006.4 |
| 20260510210946 | 28 | 217 | 3.2 | 16.1 | 0.00 | 0.00 | 0.00 | 32 | 1006.4 |
| 20260510210306 | 28 | 236 | 3.2 | 16.1 | 0.00 | 0.00 | 0.00 | 34 | 1006.4 |
| 20260510205626 | 29 | 308 | 3.2 | 12.9 | 0.00 | 0.00 | 0.00 | 31 | 1006.4 |
| 20260510205159 | 28 | 227 | 4.8 | 16.1 | 0.00 | 0.00 | 0.00 | 31 | 1006.4 |
| 20260510204306 | 28 | 182 | 6.4 | 17.7 | 0.00 | 0.00 | 0.00 | 33 | 1006.4 |
| 20260510203626 | 30 | 245 | 3.2 | 8.0 | 0.00 | 0.00 | 0.00 | 33 | 1006.4 |
| 20260510202946 | 28 | 304 | 1.6 | 8.0 | 0.00 | 0.00 | 0.00 | 35 | 1006.4 |
| 20260510202306 | 27 | 201 | 3.2 | 14.5 | 0.00 | 0.00 | 0.00 | 36 | 1006.4 |
| 20260510201627 | 27 | 201 | 6.4 | 16.1 | 0.00 | 0.00 | 0.00 | 36 | 1006.8 |
| 20260510200946 | 28 | 220 | 4.8 | 16.1 | 0.00 | 0.00 | 0.00 | 36 | 1006.8 |
| 20260510200306 | 29 | 314 | 6.4 | 11.3 | 0.00 | 0.00 | 0.00 | 32 | 1006.8 |
| 20260510195626 | 28 | 122 | 4.8 | 12.9 | 0.00 | 0.00 | 0.00 | 33 | 1006.8 |
| 20260510194946 | 28 | 193 | 3.2 | 8.0 | 0.00 | 0.00 | 0.00 | 32 | 1006.8 |
| 20260510194306 | 29 | 357 | 3.2 | 6.4 | 0.00 | 0.00 | 0.00 | 35 | 1006.8 |
| 20260510193626 | 28 | 302 | 3.2 | 6.4 | 0.00 | 0.00 | 0.00 | 36 | 1006.8 |
| 20260510192946 | 28 | 282 | 1.6 | 9.7 | 0.00 | 0.00 | 0.00 | 38 | 1006.8 |
| 20260510192517 | 27 | 192 | 3.2 | 9.7 | 0.00 | 0.00 | 0.00 | 41 | 1006.8 |
| 20260510191837 | 27 | 340 | 3.2 | 9.7 | 0.00 | 0.00 | 0.00 | 41 | 1007.1 |
| 20260510190946 | 27 | 237 | 4.8 | 11.3 | 0.00 | 0.00 | 0.00 | 39 | 1007.1 |
| 20260510190306 | 28 | 208 | 4.8 | 11.3 | 0.00 | 0.00 | 0.00 | 39 | 1007.1 |
| 20260510185627 | 28 | 326 | 3.2 | 11.3 | 0.00 | 0.00 | 0.00 | 38 | 1007.1 |
| 20260510184946 | 28 | 256 | 3.2 | 19.3 | 0.00 | 0.00 | 0.00 | 38 | 1007.5 |
| 20260510184306 | 28 | 198 | 6.4 | 19.3 | 0.00 | 0.00 | 0.00 | 39 | 1007.1 |
| 20260510183626 | 28 | 257 | 4.8 | 9.7 | 0.00 | 0.00 | 0.00 | 38 | 1007.5 |
| 20260510182946 | 27 | 257 | 3.2 | 9.7 | 0.00 | 0.00 | 0.00 | 41 | 1007.5 |
| 20260510182306 | 27 | 82 | 3.2 | 8.0 | 0.00 | 0.00 | 0.00 | 43 | 1007.5 |
| 20260510181626 | 27 | 98 | 4.8 | 8.0 | 0.00 | 0.00 | 0.00 | 40 | 1007.5 |
| 20260510180946 | 27 | 108 | 1.6 | 9.7 | 0.00 | 0.00 | 0.00 | 40 | 1007.8 |
| 20260510180306 | 28 | 313 | 1.6 | 8.0 | 0.00 | 0.00 | 0.00 | 39 | 1007.5 |
| 20260510175626 | 27 | 298 | 3.2 | 8.0 | 0.00 | 0.00 | 0.00 | 41 | 1007.8 |
| 20260510174947 | 27 | 322 | 3.2 | 11.3 | 0.00 | 0.00 | 0.00 | 42 | 1007.8 |
| 20260510174307 | 28 | 271 | 4.8 | 9.7 | 0.00 | 0.00 | 0.00 | 41 | 1007.5 |
| 20260510173626 | 27 | 298 | 4.8 | 9.7 | 0.00 | 0.00 | 0.00 | 42 | 1007.5 |
| 20260510172946 | 28 | 273 | 3.2 | 6.4 | 0.00 | 0.00 | 0.00 | 41 | 1007.5 |
| 20260510172518 | 28 | 201 | 1.6 | 14.5 | 0.00 | 0.00 | 0.00 | 41 | 1007.8 |
| 20260510171626 | 28 | 206 | 4.8 | 11.3 | 0.00 | 0.00 | 0.00 | 42 | 1007.8 |
| 20260510170946 | 28 | 187 | 3.2 | 8.0 | 0.00 | 0.00 | 0.00 | 42 | 1007.8 |
| 20260510170520 | 27 | 90 | 4.8 | 9.7 | 0.00 | 0.00 | 0.00 | 41 | 1007.8 |
| 20260510165626 | 27 | 186 | 4.8 | 9.7 | 0.00 | 0.00 | 0.00 | 43 | 1007.8 |
| 20260510164946 | 28 | 203 | 6.4 | 9.7 | 0.00 | 0.00 | 0.00 | 41 | 1007.8 |
| 20260510164306 | 27 | 187 | 3.2 | 8.0 | 0.00 | 0.00 | 0.00 | 43 | 1007.8 |
| 20260510163627 | 28 | 302 | 1.6 | 11.3 | 0.00 | 0.00 | 0.00 | 42 | 1007.8 |
| 20260510162947 | 27 | 318 | 4.8 | 11.3 | 0.00 | 0.00 | 0.00 | 43 | 1007.8 |
| 20260510162306 | 27 | 314 | 3.2 | 11.3 | 0.00 | 0.00 | 0.00 | 43 | 1007.8 |
| 20260510161840 | 27 | 342 | 4.8 | 11.3 | 0.00 | 0.00 | 0.00 | 44 | 1008.1 |
| 20260510160946 | 27 | 344 | 4.8 | 11.3 | 0.00 | 0.00 | 0.00 | 44 | 1008.1 |
| 20260510160306 | 27 | 149 | 1.6 | 11.3 | 0.00 | 0.00 | 0.00 | 46 | 1008.1 |
| 20260510155626 | 27 | 229 | 1.6 | 6.4 | 0.00 | 0.00 | 0.00 | 45 | 1008.1 |
| 20260510154946 | 26 | 92 | 4.8 | 9.7 | 0.00 | 0.00 | 0.00 | 48 | 1008.1 |
| 20260510154306 | 26 | 295 | 3.2 | 9.7 | 0.00 | 0.00 | 0.00 | 48 | 1008.5 |
| 20260510153627 | 26 | 327 | 6.4 | 9.7 | 0.00 | 0.00 | 0.00 | 46 | 1008.5 |
| 20260510152946 | 26 | 62 | 1.6 | 9.7 | 0.00 | 0.00 | 0.00 | 53 | 1008.1 |
| 20260510152307 | 26 | 208 | 4.8 | 9.7 | 0.00 | 0.00 | 0.00 | 55 | 1008.1 |
| 20260510151626 | 25 | 177 | 3.2 | 9.7 | 0.00 | 0.00 | 0.00 | 56 | 1008.1 |
| 20260510150946 | 26 | 131 | 3.2 | 6.4 | 0.00 | 0.00 | 0.00 | 53 | 1008.1 |
| 20260510150306 | 25 | 196 | 3.2 | 8.0 | 0.00 | 0.00 | 0.00 | 56 | 1008.5 |
| 20260510145626 | 25 | 49 | 3.2 | 6.4 | 0.00 | 0.00 | 0.00 | 56 | 1008.1 |
| 20260510145158 | 24 | 348 | 3.2 | 9.7 | 0.00 | 0.00 | 0.00 | 58 | 1008.1 |
| 20260510144306 | 24 | 41 | 3.2 | 11.3 | 0.00 | 0.00 | 0.00 | 60 | 1008.1 |
| 20260510143626 | 24 | 306 | 4.8 | 8.0 | 0.00 | 0.00 | 0.00 | 61 | 1008.1 |
| 20260510142946 | 24 | 15 | 1.6 | 11.3 | 0.00 | 0.00 | 0.00 | 61 | 1008.1 |
| 20260510142306 | 23 | 266 | 3.2 | 9.7 | 0.00 | 0.00 | 0.00 | 64 | 1008.1 |
| 20260510141627 | 24 | 180 | 3.2 | 8.0 | 0.00 | 0.00 | 0.00 | 62 | 1008.1 |
| 20260510140946 | 23 | 187 | 1.6 | 9.7 | 0.00 | 0.00 | 0.00 | 63 | 1008.1 |
| 20260510140306 | 23 | 226 | 3.2 | 14.5 | 0.00 | 0.00 | 0.00 | 65 | 1008.1 |
| 20260510135626 | 23 | 327 | 6.4 | 14.5 | 0.00 | 0.00 | 0.00 | 66 | 1008.1 |
| 20260510134946 | 22 | 199 | 4.8 | 9.7 | 0.00 | 0.00 | 0.00 | 70 | 1008.1 |
| 20260510134306 | 22 | 311 | 1.6 | 8.0 | 0.00 | 0.00 | 0.00 | 70 | 1008.1 |
| 20260510133626 | 21 | 265 | 1.6 | 11.3 | 0.00 | 0.00 | 0.00 | 74 | 1008.1 |
| 20260510132947 | 21 | 19 | 1.6 | 6.4 | 0.00 | 0.00 | 0.00 | 75 | 1007.8 |
| 20260510132306 | 21 | 178 | 3.2 | 9.7 | 0.00 | 0.00 | 0.00 | 79 | 1008.1 |
| 20260510131627 | 20 | 169 | 3.2 | 9.7 | 0.00 | 0.00 | 0.00 | 80 | 1008.1 |
| 20260510131157 | 20 | 200 | 4.8 | 8.0 | 0.00 | 0.00 | 0.00 | 81 | 1008.1 |
| 20260510130518 | 20 | 129 | 3.2 | 8.0 | 0.00 | 0.00 | 0.00 | 82 | 1008.1 |
| 20260510125627 | 20 | 182 | 3.2 | 8.0 | 0.00 | 0.00 | 0.00 | 83 | 1007.8 |
| 20260510124946 | 20 | 187 | 3.2 | 8.0 | 0.00 | 0.00 | 0.00 | 83 | 1007.8 |
| 20260510124520 | 19 | 200 | 3.2 | 8.0 | 0.00 | 0.00 | 0.00 | 87 | 1007.8 |
| 20260510123626 | 18 | 199 | 3.2 | 6.4 | 0.00 | 0.00 | 0.00 | 88 | 1007.8 |
| 20260510122946 | 18 | 170 | 3.2 | 8.0 | 0.00 | 0.00 | 0.00 | 89 | 1007.8 |
| 20260510122307 | 18 | 187 | 4.8 | 8.0 | 0.00 | 0.00 | 0.00 | 90 | 1007.8 |
| 20260510121626 | 17 | 227 | 3.2 | 8.0 | 0.00 | 0.00 | 0.00 | 91 | 1007.8 |
| 20260510120946 | 17 | 175 | 3.2 | 4.8 | 0.00 | 0.00 | 0.00 | 94 | 1007.8 |
| 20260510120518 | 17 | 188 | 3.2 | 4.8 | 0.00 | 0.00 | 0.00 | 95 | 1007.8 |
| 20260510115626 | 17 | 181 | 1.6 | 3.2 | 0.00 | 0.00 | 0.00 | 96 | 1007.5 |
| 20260510114946 | 16 | 81 | 1.6 | 3.2 | 0.00 | 0.00 | 0.00 | 96 | 1007.5 |
| 20260510114306 | 16 | 107 | 1.6 | 3.2 | 0.00 | 0.00 | 0.00 | 96 | 1007.5 |
| 20260510113836 | 16 | 193 | 1.6 | 1.6 | 0.00 | 0.00 | 0.00 | 98 | 1007.5 |
| 20260510112946 | 16 | 198 | 1.6 | 1.6 | 0.00 | 0.00 | 0.00 | 98 | 1007.1 |
| 20260510112307 | 16 | 99 | 0.0 | 1.6 | 0.00 | 0.00 | 0.00 | 100 | 1007.1 |
| 20260510111626 | 16 | 352 | 0.0 | 1.6 | 0.00 | 0.00 | 0.00 | 100 | 1007.1 |
| 20260510111158 | 16 | 265 | 0.0 | 1.6 | 0.00 | 0.00 | 0.00 | 100 | 1007.1 |
| 20260510110306 | 15 | 152 | 0.0 | 1.6 | 0.00 | 0.00 | 0.00 | 100 | 1007.1 |
| 20260510105840 | 15 | 201 | 1.6 | 3.2 | 0.00 | 0.00 | 0.00 | 100 | 1007.1 |
| 20260510104946 | 15 | 180 | 1.6 | 3.2 | 0.00 | 0.00 | 0.00 | 100 | 1006.8 |
| 20260510104306 | 15 | 79 | 1.6 | 3.2 | 0.00 | 0.00 | 0.00 | 100 | 1006.8 |
| 20260510103626 | 15 | 128 | 1.6 | 3.2 | 0.00 | 0.00 | 0.00 | 100 | 1006.4 |
| 20260510102946 | 15 | 109 | 1.6 | 3.2 | 0.00 | 0.00 | 0.00 | 100 | 1006.4 |
| 20260510102306 | 15 | 271 | 0.0 | 1.6 | 0.00 | 0.00 | 0.00 | 100 | 1006.4 |
| 20260510101627 | 15 | 137 | 1.6 | 3.2 | 0.00 | 0.00 | 0.00 | 99 | 1006.1 |
| 20260510100946 | 15 | 82 | 1.6 | 3.2 | 0.00 | 0.00 | 0.00 | 99 | 1006.1 |
| 20260510100306 | 15 | 128 | 1.6 | 3.2 | 0.00 | 0.00 | 0.00 | 99 | 1006.1 |
| 20260510095626 | 16 | 129 | 1.6 | 3.2 | 0.00 | 0.00 | 0.00 | 99 | 1006.1 |
| 20260510094947 | 16 | 144 | 1.6 | 3.2 | 0.00 | 0.00 | 0.00 | 99 | 1005.8 |
| 20260510094306 | 15 | 176 | 1.6 | 3.2 | 0.00 | 0.00 | 0.00 | 100 | 1005.8 |
| 20260510093627 | 16 | 189 | 1.6 | 3.2 | 0.00 | 0.00 | 0.00 | 100 | 1005.8 |
| 20260510092946 | 15 | 189 | 1.6 | 3.2 | 0.00 | 0.00 | 0.00 | 99 | 1005.8 |
| 20260510092307 | 15 | 145 | 1.6 | 3.2 | 0.00 | 0.00 | 0.00 | 99 | 1005.8 |
| 20260510091626 | 15 | 163 | 1.6 | 4.8 | 0.00 | 0.00 | 0.00 | 99 | 1005.8 |
| 20260510090946 | 15 | 152 | 1.6 | 4.8 | 0.00 | 0.00 | 0.00 | 99 | 1005.8 |
| 20260510090306 | 15 | 176 | 1.6 | 3.2 | 0.00 | 0.00 | 0.00 | 99 | 1005.4 |
| 20260510085626 | 15 | 167 | 1.6 | 4.8 | 0.00 | 0.00 | 0.00 | 100 | 1005.4 |
| 20260510085156 | 15 | 134 | 1.6 | 4.8 | 0.00 | 0.00 | 0.00 | 100 | 1005.4 |
| 20260510084306 | 15 | 152 | 1.6 | 4.8 | 0.00 | 0.00 | 0.00 | 99 | 1005.1 |
| 20260510083626 | 15 | 144 | 1.6 | 3.2 | 0.00 | 0.00 | 0.00 | 99 | 1005.1 |
| 20260510082946 | 16 | 135 | 1.6 | 3.2 | 0.00 | 0.00 | 0.00 | 97 | 1005.1 |
| 20260510082307 | 16 | 144 | 1.6 | 3.2 | 0.00 | 0.00 | 0.00 | 99 | 1005.1 |
| 20260510081627 | 16 | 135 | 1.6 | 4.8 | 0.00 | 0.00 | 0.00 | 98 | 1005.1 |
| 20260510080946 | 15 | 127 | 1.6 | 3.2 | 0.00 | 0.00 | 0.00 | 97 | 1005.1 |
| 20260510080306 | 16 | 169 | 1.6 | 3.2 | 0.00 | 0.00 | 0.00 | 97 | 1005.1 |
| 20260510075626 | 16 | 119 | 1.6 | 3.2 | 0.00 | 0.00 | 0.00 | 94 | 1005.1 |
| 20260510075157 | 16 | 190 | 1.6 | 6.4 | 0.00 | 0.00 | 0.00 | 94 | 1005.1 |
| 20260510074306 | 16 | 274 | 3.2 | 6.4 | 0.00 | 0.00 | 0.00 | 96 | 1005.1 |
| 20260510073838 | 16 | 310 | 1.6 | 3.2 | 0.00 | 0.00 | 0.00 | 96 | 1005.1 |
| 20260510072946 | 16 | 294 | 1.6 | 3.2 | 0.00 | 0.00 | 0.00 | 96 | 1004.7 |
| 20260510072306 | 16 | 177 | 1.6 | 4.8 | 0.00 | 0.00 | 0.00 | 96 | 1005.1 |
| 20260510071626 | 16 | 205 | 1.6 | 3.2 | 0.00 | 0.00 | 0.00 | 97 | 1005.1 |
| 20260510070946 | 16 | 192 | 1.6 | 3.2 | 0.00 | 0.00 | 0.00 | 98 | 1005.1 |
| 20260510070307 | 16 | 200 | 1.6 | 3.2 | 0.00 | 0.00 | 0.00 | 100 | 1005.1 |
| 20260510065626 | 16 | 185 | 1.6 | 3.2 | 0.00 | 0.00 | 0.00 | 100 | 1005.1 |
| 20260510064946 | 16 | 183 | 1.6 | 4.8 | 0.00 | 0.00 | 0.00 | 100 | 1005.1 |
| 20260510064306 | 16 | 174 | 1.6 | 3.2 | 0.00 | 0.00 | 0.00 | 100 | 1005.1 |
| 20260510063626 | 15 | 107 | 1.6 | 3.2 | 0.00 | 0.00 | 0.00 | 100 | 1005.1 |
| 20260510062946 | 16 | 172 | 1.6 | 3.2 | 0.00 | 0.00 | 0.00 | 100 | 1005.1 |
| 20260510062307 | 15 | 175 | 1.6 | 3.2 | 0.00 | 0.00 | 0.00 | 100 | 1005.1 |
| 20260510061626 | 16 | 111 | 1.6 | 1.6 | 0.00 | 0.00 | 0.00 | 98 | 1004.7 |
| 20260510060946 | 16 | 141 | 1.6 | 1.6 | 0.00 | 0.00 | 0.00 | 98 | 1004.7 |
| 20260510060517 | 16 | 154 | 1.6 | 3.2 | 0.00 | 0.00 | 0.00 | 99 | 1004.7 |
| 20260510055626 | 16 | 207 | 1.6 | 3.2 | 0.00 | 0.00 | 0.00 | 100 | 1005.1 |
| 20260510055158 | 16 | 323 | 1.6 | 3.2 | 0.00 | 0.00 | 0.00 | 99 | 1005.1 |
| 20260510054306 | 16 | 87 | 0.0 | 1.6 | 0.00 | 0.00 | 0.00 | 98 | 1005.1 |
| 20260510053626 | 16 | 169 | 1.6 | 3.2 | 0.00 | 0.00 | 0.00 | 99 | 1005.1 |
| 20260510052947 | 16 | 13 | 1.6 | 3.2 | 0.00 | 0.00 | 0.00 | 98 | 1005.1 |
| 20260510052516 | 16 | 18 | 0.0 | 1.6 | 0.00 | 0.00 | 0.00 | 98 | 1005.4 |
| 20260510051626 | 16 | 241 | 0.0 | 1.6 | 0.00 | 0.00 | 0.00 | 96 | 1005.4 |
| 20260510050946 | 17 | 244 | 0.0 | 3.2 | 0.00 | 0.00 | 0.00 | 97 | 1005.4 |
| 20260510050518 | 17 | 269 | 1.6 | 3.2 | 0.00 | 0.00 | 0.00 | 97 | 1005.4 |
| 20260510045838 | 17 | 186 | 1.6 | 3.2 | 0.00 | 0.00 | 0.00 | 98 | 1005.8 |
| 20260510044946 | 17 | 181 | 1.6 | 3.2 | 0.00 | 0.00 | 0.00 | 96 | 1005.4 |
| 20260510044307 | 17 | 172 | 1.6 | 3.2 | 0.00 | 0.00 | 0.00 | 98 | 1005.4 |
| 20260510043626 | 17 | 184 | 3.2 | 4.8 | 0.00 | 0.00 | 0.00 | 98 | 1005.8 |
| 20260510042947 | 17 | 190 | 3.2 | 4.8 | 0.00 | 0.00 | 0.00 | 100 | 1005.4 |
| 20260510042307 | 17 | 160 | 1.6 | 4.8 | 0.00 | 0.00 | 0.00 | 99 | 1005.4 |
| 20260510041626 | 17 | 135 | 1.6 | 3.2 | 0.00 | 0.00 | 0.00 | 96 | 1005.4 |
| 20260510040946 | 17 | 175 | 1.6 | 3.2 | 0.00 | 0.00 | 0.00 | 98 | 1005.4 |
| 20260510040306 | 17 | 189 | 3.2 | 3.2 | 0.00 | 0.00 | 0.00 | 98 | 1005.4 |
| 20260510035626 | 17 | 213 | 1.6 | 3.2 | 0.00 | 0.00 | 0.05 | 99 | 1005.1 |
| 20260510034946 | 17 | 157 | 1.6 | 3.2 | 0.00 | 0.00 | 0.05 | 96 | 1005.1 |
| 20260510034307 | 17 | 175 | 1.6 | 3.2 | 0.00 | 0.00 | 0.05 | 97 | 1005.1 |
| 20260510033626 | 17 | 125 | 0.0 | 3.2 | 0.00 | 0.00 | 0.05 | 95 | 1005.1 |
| 20260510032946 | 17 | 171 | 1.6 | 3.2 | 0.00 | 0.00 | 0.05 | 96 | 1005.1 |
| 20260510032306 | 17 | 157 | 1.6 | 4.8 | 0.00 | 0.00 | 0.05 | 95 | 1005.1 |
| 20260510031626 | 17 | 159 | 1.6 | 3.2 | 0.00 | 0.00 | 0.05 | 95 | 1005.1 |
| 20260510030946 | 17 | 166 | 1.6 | 3.2 | 0.00 | 0.00 | 0.05 | 96 | 1005.1 |
| 20260510030519 | 17 | 172 | 1.6 | 3.2 | 0.00 | 0.00 | 0.05 | 97 | 1005.1 |
| 20260510025626 | 17 | 162 | 1.6 | 3.2 | 0.00 | 0.00 | 0.05 | 98 | 1005.1 |
| 20260510024946 | 17 | 168 | 1.6 | 3.2 | 0.00 | 0.00 | 0.05 | 99 | 1005.1 |
| 20260510024306 | 17 | 178 | 1.6 | 3.2 | 0.00 | 0.00 | 0.05 | 98 | 1004.7 |
| 20260510023836 | 17 | 170 | 0.0 | 1.6 | 0.00 | 0.00 | 0.05 | 98 | 1004.7 |
| 20260510022946 | 17 | 3 | 1.6 | 1.6 | 0.00 | 0.00 | 0.05 | 98 | 1004.7 |
| 20260510022307 | 17 | 186 | 1.6 | 1.6 | 0.00 | 0.00 | 0.05 | 99 | 1004.7 |
| 20260510021626 | 17 | 234 | 0.0 | 1.6 | 0.00 | 0.00 | 0.05 | 98 | 1004.7 |
| 20260510020946 | 17 | 148 | 1.6 | 3.2 | 0.00 | 0.00 | 0.05 | 98 | 1004.4 |
| 20260510020306 | 17 | 169 | 1.6 | 3.2 | 0.00 | 0.00 | 0.05 | 98 | 1004.4 |
| 20260510015627 | 17 | 176 | 1.6 | 3.2 | 0.00 | 0.00 | 0.05 | 98 | 1004.7 |
| 20260510014946 | 17 | 183 | 1.6 | 3.2 | 0.00 | 0.00 | 0.05 | 96 | 1004.7 |
| 20260510014306 | 17 | 185 | 1.6 | 3.2 | 0.00 | 0.00 | 0.05 | 97 | 1004.4 |
| 20260510013626 | 18 | 6 | 0.0 | 1.6 | 0.00 | 0.00 | 0.05 | 96 | 1004.4 |
| 20260510012946 | 18 | 156 | 0.0 | 1.6 | 0.00 | 0.00 | 0.05 | 95 | 1004.4 |
| 20260510012307 | 18 | 145 | 1.6 | 1.6 | 0.00 | 0.00 | 0.05 | 95 | 1004.1 |
| 20260510011839 | 18 | 68 | 1.6 | 1.6 | 0.00 | 0.00 | 0.05 | 94 | 1004.1 |
| 20260510010946 | 18 | 30 | 1.6 | 1.6 | 0.00 | 0.00 | 0.05 | 94 | 1004.1 |
| 20260510010306 | 18 | 170 | 1.6 | 1.6 | 0.00 | 0.00 | 0.05 | 94 | 1004.4 |
| 20260510005627 | 18 | 90 | 0.0 | 1.6 | 0.00 | 0.00 | 0.05 | 92 | 1004.1 |
| 20260510004947 | 18 | 129 | 0.0 | 1.6 | 0.00 | 0.00 | 0.05 | 90 | 1004.1 |
| 20260510004306 | 19 | 66 | 0.0 | 3.2 | 0.00 | 0.00 | 0.05 | 89 | 1004.1 |
| 20260510003626 | 19 | 97 | 1.6 | 3.2 | 0.00 | 0.00 | 0.05 | 88 | 1003.7 |
| 20260510002946 | 20 | 146 | 0.0 | 1.6 | 0.00 | 0.00 | 0.05 | 86 | 1004.1 |
| 20260510002307 | 20 | 355 | 0.0 | 1.6 | 0.00 | 0.00 | 0.05 | 86 | 1004.1 |
| 20260510001840 | 20 | 66 | 0.0 | 3.2 | 0.00 | 0.00 | 0.05 | 85 | 1004.1 |
| 20260510000946 | 20 | 112 | 1.6 | 3.2 | 0.00 | 0.00 | 0.05 | 84 | 1004.1 |
| 20260510000307 | 21 | 27 | 0.0 | 3.2 | 0.00 | 0.00 | 0.05 | 82 | 1003.7 |
| 20260509235626 | 21 | 24 | 1.6 | 3.2 | 0.00 | 0.00 | 0.05 | 80 | 1003.7 |